Вернуться в каталог

SL-14 DEB

АктивенPO
NORAD 26010·DEBRIS·🇷🇺 Russia

Запущен Sep 28, 1991 с Plesetsk Cosmodrome

Loading…

Ближайшие Пролёты (ближайшие 24 часа)

TLE

СвежийSource: Space-Track

Эпоха: Sep 14, 2026, 00:28 UTC

1 26010U 91068V   26257.02008716  .00000054  00000-0  31223-3 0  9992
2 26010  82.7296 274.7244 0050366 319.0151  67.8382 12.44761717214961

Отслеживайте SL-14 DEB в реальном времени с AllMySat

Download on the App Store